Location: Unspecified
(0.0000°N, 0.0000°E)
Time: 06:43:33
(UTC+00:00)

Vanguard 1 - Pass Details

Date: 10 December 2017
Orbit: 650 x 3833 km, 34.3° (Epoch: 22 June)

Event Time Altitude Azimuth Distance (km) Brightness Sun altitude
Rises 07:17:53 0° 239° (WSW) 7,425 14.2 19.5°
Reaches altitude 10° 07:22:33 10° 241° (WSW) 6,635 14.0 20.6°
Maximum altitude 07:45:54 70° 321° (NW) 3,860 13.2 25.9°
Drops below altitude 10° 08:05:10 10° 43° (NE) 5,614 14.2 30.2°
Sets 08:08:46 0° 46° (NE) 6,288 14.4 31.0°
